Location: Aufkirchen
(47.9603°N, 11.3653°E)
Time: 07:35:44
(UTC+01:00)

Explorer 11/Cluster Stage 4 - Visible Passes

Search period start: 27 November 2020 00:00
Search period end: 07 December 2020 00:00
Orbit: 467 x 1258 km, 28.8° (Epoch: 26 November)

Date Brightness Start Highest point End Pass type
(mag) Time Alt. Az. Time Alt. Az. Time Alt. Az.
03 Dec 9.4 19:45:01 10° SSW 19:46:59 12° S 19:46:59 12° S visible
04 Dec 9.3 19:33:09 10° SSW 19:36:45 14° S 19:36:45 14° S visible
05 Dec 9.2 19:21:28 10° SSW 19:25:48 16° S 19:26:31 15° SSE visible
06 Dec 9.1 19:09:54 10° SSW 19:14:36 17° S 19:16:17 16° SSE visible
06 Dec 9.7 20:57:55 10° SW 20:58:24 11° SW 20:58:24 11° SW visible
